STARLINK-3911 (52565 NORAD) Tracking and Keplerian Element Data

This shows tracking and keplerian element data for the satellite.

Feedback or suggestion? Click here.




ElementValue
Catalog52565
NameSTARLINK-3911
Epoch Orbit130
Epoch Day167.08334491
Epoch Year2022
RAAN128.9964
Inclination53.2163
Eccentricity0.0002587
Argument of Perigee15.4888
Mean Anonmoly50.8052
Mean Motion15.73225058
Decay Rate0.00028099
L11 52565U 22051AJ 22167.08334491 .00028099 00000+0 20372-3 0 9997
L22 52565 53.2163 128.9964 0002587 15.4888 50.8052 15.73225058 1302

Live tracking and technical data element details for STARLINK-3911 (NORAD 52565). STARLINK-3911 can be tracked NOW for your location showing map with azimuth and elevation plus other details from your city location.

Track the satellite on the map from your city or location and see movement details for azimuth, elevation, latitude, longitude, range, height, and movement on the map or in text.







IsCatalogInMostPopularTable: catalog: 52565, numindb: 3
Update: records affected: 1



GetName: 52565 STARLINK-3911

Hit Count: updated at: Sat, 25 Jun 2022 04:42:29 GMT